Find Starlink 1788

NORAD ID: 46689 Int'l Des: 2020-073 Owner: SPXS Country: US Constellation: starlink operational
LEOCIRCULAR

リアルタイム位置

3D地球を読み込み中...

Starlink 1788について

説明を読み込み中...

次回通過

Passes for default location (London). Set your location on the main map for personalized predictions.

高度履歴

Loading altitude history...

軌道要素

1 46689U 20073V 26121.27395441 .00168744 00000-0 11651-2 0 9998
2 46689 53.0394 319.1757 0003074 203.9819 156.1057 15.73544716306959
Epoch: May 1, 2026 • Age: 33 hours

現在のステータス

高度 351.9 km
速度 7.70 km/s
衛星直下点 -22.78°S, 58.15°E
打ち上げ日 Oct 18, 2020
運用期間 5.5 years
タイプ internet

技術仕様

分類 Payload
質量 260.00 kg
乾燥質量 248.00 kg
総質量 260.00 kg
長さ 0.20 m
直径 2.80 m
スパン 9.00 m
形状 Box + pan
製造者 SPXS
バスタイプ Starlink
フェーズステータス In Orbit
所有者/国 SPXS/US

Most Searched